Back to catalog

STARLINK-36270

AliveCommunicationsVLEO
NORAD 67200·PAYLOAD·🇺🇸 United States

Launched Dec 17, 2025 from Vandenberg Space Force Base

Loading…

Next Passes (next 24 hours)

TLE

FreshSource: CelesTrak SupGP

Epoch: Sep 14, 2026, 21:06 UTC

1 67200C 25304J   26257.87965278  .00039056  00000+0  32728-2 0  2576
2 67200  70.0014  57.4003 0002575 273.5958 122.7247 14.98314869    15

Track STARLINK-36270 in real time with AllMySat

Download on the App Store